EZY39QX EGAC-EGKK

Flight info

Callsign EZY39QX
Flight time 0h 56m
Altitude 33000
Route RINGA DCT BABGU DCT ETIGA DCT INKOB Q39 NOMSU UQ4 WAL L151 DISIT
Aircraft A319/M-SDE2E3FGIJ1RWXYZ/LB1

Departure

Time 2026-05-04 21:05
Airport George Best Belfast City Airport (EGAC)

Arrival

Time 2026-05-04 22:01
Airport London Gatwick Airport (EGKK)
Time Latitude Longitude Altitude Speed Heading
2026-05-04 20:42 54.61599 -5.87020 22 ft 0 kts 124°
2026-05-04 20:55 54.61600 -5.87022 21 ft 1 kts 124°
2026-05-04 20:56 54.61609 -5.87044 21 ft 3 kts 124°
2026-05-04 20:56 54.61620 -5.87071 26 ft 3 kts 137°
2026-05-04 20:56 54.61634 -5.87087 23 ft 3 kts 181°
2026-05-04 20:56 54.61651 -5.87080 23 ft 2 kts 212°
2026-05-04 20:57 54.61656 -5.87075 25 ft 0 kts 214°
2026-05-04 20:59 54.61655 -5.87075 25 ft 0 kts 214°
2026-05-04 20:59 54.61651 -5.87081 22 ft 1 kts 214°
2026-05-04 20:59 54.61623 -5.87113 24 ft 12 kts 214°
2026-05-04 20:59 54.61530 -5.87224 21 ft 18 kts 214°
2026-05-04 21:00 54.61433 -5.87343 22 ft 16 kts 216°
2026-05-04 21:00 54.61360 -5.87473 21 ft 15 kts 217°
2026-05-04 21:00 54.61287 -5.87559 18 ft 12 kts 215°
2026-05-04 21:00 54.61217 -5.87645 16 ft 13 kts 214°
2026-05-04 21:01 54.61155 -5.87718 17 ft 8 kts 214°
2026-05-04 21:01 54.61126 -5.87754 18 ft 0 kts 215°
2026-05-04 21:02 54.61116 -5.87765 18 ft 6 kts 214°
2026-05-04 21:02 54.61089 -5.87806 19 ft 5 kts 236°
2026-05-04 21:02 54.61087 -5.87815 19 ft 0 kts 251°
2026-05-04 21:03 54.61085 -5.87829 19 ft 4 kts 251°
2026-05-04 21:03 54.61096 -5.87932 18 ft 13 kts 301°
2026-05-04 21:03 54.61151 -5.88030 18 ft 9 kts 343°
2026-05-04 21:04 54.61173 -5.88013 18 ft 0 kts 32°
2026-05-04 21:04 54.61297 -5.87867 14 ft 62 kts 35°
2026-05-04 21:04 54.61858 -5.87199 21 ft 131 kts 34°
2026-05-04 21:04 54.62673 -5.86215 482 ft 141 kts 33°
2026-05-04 21:05 54.63457 -5.85253 1260 ft 135 kts 32°
2026-05-04 21:05 54.64258 -5.84267 1769 ft 152 kts 31°
2026-05-04 21:05 54.65170 -5.83107 2177 ft 174 kts 32°
2026-05-04 21:05 54.66210 -5.81791 2579 ft 197 kts 32°
2026-05-04 21:06 54.67395 -5.80320 2985 ft 223 kts 32°
2026-05-04 21:06 54.68726 -5.78683 3519 ft 247 kts 32°
2026-05-04 21:06 54.69947 -5.76428 4226 ft 268 kts 59°
2026-05-04 21:06 54.70431 -5.73277 5185 ft 278 kts 89°
2026-05-04 21:07 54.70041 -5.69997 6165 ft 283 kts 115°
2026-05-04 21:07 54.68891 -5.67232 7102 ft 287 kts 140°
2026-05-04 21:07 54.67172 -5.65523 8001 ft 288 kts 165°
2026-05-04 21:07 54.65206 -5.64822 8954 ft 290 kts 172°
2026-05-04 21:08 54.63207 -5.64216 9889 ft 294 kts 173°
2026-05-04 21:08 54.61152 -5.63603 10464 ft 310 kts 172°
2026-05-04 21:08 54.58956 -5.62948 10912 ft 328 kts 172°
2026-05-04 21:08 54.56683 -5.62256 11667 ft 334 kts 172°
2026-05-04 21:09 54.54381 -5.61547 12506 ft 338 kts 172°
2026-05-04 21:09 54.52056 -5.60831 13343 ft 341 kts 172°
2026-05-04 21:09 54.49739 -5.60124 14137 ft 345 kts 172°
2026-05-04 21:09 54.47374 -5.59404 14852 ft 348 kts 172°
2026-05-04 21:10 54.44972 -5.58674 15567 ft 352 kts 171°
2026-05-04 21:10 54.42586 -5.57648 16243 ft 357 kts 161°
2026-05-04 21:10 54.40344 -5.55735 16931 ft 363 kts 148°
2026-05-04 21:10 54.38377 -5.52982 17625 ft 368 kts 135°
2026-05-04 21:11 54.36758 -5.49479 18320 ft 372 kts 124°
2026-05-04 21:11 54.35304 -5.45865 18983 ft 374 kts 125°
2026-05-04 21:11 54.33817 -5.42189 19597 ft 377 kts 125°
2026-05-04 21:11 54.32311 -5.38486 20196 ft 380 kts 125°
2026-05-04 21:12 54.30792 -5.34761 20781 ft 384 kts 125°
2026-05-04 21:12 54.29250 -5.30992 21381 ft 388 kts 125°
2026-05-04 21:12 54.27694 -5.27208 21969 ft 391 kts 126°
2026-05-04 21:12 54.26048 -5.23478 22540 ft 395 kts 128°
2026-05-04 21:13 54.24311 -5.19815 23115 ft 398 kts 130°
2026-05-04 21:13 54.22518 -5.16169 23666 ft 402 kts 130°
2026-05-04 21:13 54.20698 -5.12508 24145 ft 406 kts 130°
2026-05-04 21:13 54.18869 -5.08814 24609 ft 409 kts 130°
2026-05-04 21:14 54.17033 -5.05070 25066 ft 412 kts 130°
2026-05-04 21:14 54.15195 -5.01295 25530 ft 415 kts 130°
2026-05-04 21:14 54.13352 -4.97488 25997 ft 417 kts 129°
2026-05-04 21:14 54.11506 -4.93664 26497 ft 419 kts 129°
2026-05-04 21:15 54.09648 -4.89821 26950 ft 421 kts 129°
2026-05-04 21:15 54.07773 -4.85963 27379 ft 424 kts 129°
2026-05-04 21:15 54.05878 -4.82078 27793 ft 427 kts 129°
2026-05-04 21:15 54.03976 -4.78174 28215 ft 430 kts 129°
2026-05-04 21:16 54.02109 -4.74173 28644 ft 433 kts 127°
2026-05-04 21:16 54.00281 -4.70082 29084 ft 436 kts 126°
2026-05-04 21:16 53.98473 -4.65932 29520 ft 438 kts 126°
2026-05-04 21:16 53.96661 -4.61748 29929 ft 441 kts 126°
2026-05-04 21:17 53.94831 -4.57554 30305 ft 444 kts 126°
2026-05-04 21:17 53.92976 -4.53355 30640 ft 446 kts 126°
2026-05-04 21:17 53.91097 -4.49159 30977 ft 448 kts 127°
2026-05-04 21:17 53.89200 -4.44961 31376 ft 448 kts 126°
2026-05-04 21:18 53.87299 -4.40768 31754 ft 449 kts 126°
2026-05-04 21:18 53.85438 -4.36538 32231 ft 447 kts 124°
2026-05-04 21:18 53.84244 -4.33698 32550 ft 445 kts 123°
2026-05-04 21:18 53.82491 -4.29390 32975 ft 445 kts 123°
2026-05-04 21:19 53.80761 -4.25058 33084 ft 441 kts 122°
2026-05-04 21:19 53.79075 -4.20834 33096 ft 425 kts 123°
2026-05-04 21:19 53.75794 -4.12714 33095 ft 414 kts 123°
2026-05-04 21:20 53.72513 -4.04744 33095 ft 413 kts 123°
2026-05-04 21:20 53.69212 -3.96811 33095 ft 413 kts 123°
2026-05-04 21:21 53.65920 -3.88898 33090 ft 410 kts 123°
2026-05-04 21:21 53.62656 -3.81061 33090 ft 408 kts 123°
2026-05-04 21:22 53.59400 -3.73258 33090 ft 407 kts 123°
2026-05-04 21:22 53.56138 -3.65472 33081 ft 407 kts 123°
2026-05-04 21:23 53.52865 -3.57703 33091 ft 407 kts 123°
2026-05-04 21:23 53.49594 -3.49955 33085 ft 406 kts 123°
2026-05-04 21:24 53.46509 -3.42040 33082 ft 404 kts 114°
2026-05-04 21:24 53.44300 -3.33401 33079 ft 403 kts 111°
2026-05-04 21:25 53.42100 -3.24764 33070 ft 403 kts 111°
2026-05-04 21:25 53.39678 -3.16382 33068 ft 405 kts 122°
2026-05-04 21:26 53.35740 -3.09517 33066 ft 410 kts 142°
2026-05-04 21:26 53.31054 -3.04168 33071 ft 411 kts 143°
2026-05-04 21:27 53.26330 -2.98789 33069 ft 411 kts 143°
2026-05-04 21:27 53.21613 -2.93417 33076 ft 411 kts 143°
2026-05-04 21:28 53.17203 -2.88413 33083 ft 410 kts 143°
2026-05-04 21:28 53.12477 -2.83087 33080 ft 410 kts 143°
2026-05-04 21:29 53.07756 -2.77780 33076 ft 409 kts 143°
2026-05-04 21:29 53.03046 -2.72486 33074 ft 409 kts 143°
2026-05-04 21:30 52.98334 -2.67189 33072 ft 409 kts 143°
2026-05-04 21:30 52.93620 -2.61930 33094 ft 408 kts 143°
2026-05-04 21:31 52.86551 -2.54077 33099 ft 407 kts 143°
2026-05-04 21:32 52.81879 -2.48907 33095 ft 407 kts 143°
2026-05-04 21:32 52.77182 -2.43701 33088 ft 406 kts 143°
2026-05-04 21:33 52.72477 -2.38503 33078 ft 412 kts 144°
2026-05-04 21:33 52.70024 -2.35795 33075 ft 424 kts 145°
2026-05-04 21:33 52.67601 -2.33124 32901 ft 422 kts 145°
2026-05-04 21:33 52.65163 -2.30446 32673 ft 411 kts 145°
2026-05-04 21:34 52.62837 -2.27893 32314 ft 404 kts 145°
2026-05-04 21:34 52.60509 -2.25345 31875 ft 399 kts 145°
2026-05-04 21:34 52.58206 -2.22834 31439 ft 396 kts 146°
2026-05-04 21:34 52.55923 -2.20349 31009 ft 392 kts 146°
2026-05-04 21:35 52.53662 -2.17884 30580 ft 388 kts 146°
2026-05-04 21:35 52.51424 -2.15443 30167 ft 385 kts 146°
2026-05-04 21:35 52.49202 -2.13022 29698 ft 382 kts 147°
2026-05-04 21:35 52.47002 -2.10628 29248 ft 378 kts 148°
2026-05-04 21:36 52.44817 -2.08253 28797 ft 375 kts 148°
2026-05-04 21:36 52.42649 -2.05901 28359 ft 373 kts 148°
2026-05-04 21:36 52.40492 -2.03566 27922 ft 370 kts 148°
2026-05-04 21:36 52.38354 -2.01253 27487 ft 367 kts 148°
2026-05-04 21:37 52.36229 -1.98953 27055 ft 365 kts 148°
2026-05-04 21:37 52.34114 -1.96669 26587 ft 363 kts 149°
2026-05-04 21:37 52.32014 -1.94402 26121 ft 361 kts 149°
2026-05-04 21:37 52.29920 -1.92146 25678 ft 359 kts 149°
2026-05-04 21:38 52.27838 -1.89909 25245 ft 357 kts 149°
2026-05-04 21:38 52.25770 -1.87689 24818 ft 354 kts 149°
2026-05-04 21:38 52.23719 -1.85488 24417 ft 351 kts 149°
2026-05-04 21:38 52.21683 -1.83304 23984 ft 349 kts 149°
2026-05-04 21:39 52.19661 -1.81139 23549 ft 347 kts 149°
2026-05-04 21:39 52.17649 -1.78986 23052 ft 345 kts 149°
2026-05-04 21:39 52.15646 -1.76844 22581 ft 343 kts 149°
2026-05-04 21:39 52.13659 -1.74722 22135 ft 341 kts 149°
2026-05-04 21:40 52.11686 -1.72616 21700 ft 338 kts 149°
2026-05-04 21:40 52.09720 -1.70522 21270 ft 336 kts 149°
2026-05-04 21:40 52.07770 -1.68446 20855 ft 334 kts 149°
2026-05-04 21:40 52.05827 -1.66377 20432 ft 333 kts 149°
2026-05-04 21:41 52.03896 -1.64328 20022 ft 331 kts 149°
2026-05-04 21:41 52.01974 -1.62289 19638 ft 329 kts 148°
2026-05-04 21:41 52.00067 -1.60264 19260 ft 327 kts 148°
2026-05-04 21:41 51.98170 -1.58257 18892 ft 325 kts 148°
2026-05-04 21:42 51.96278 -1.56261 18518 ft 323 kts 148°
2026-05-04 21:42 51.94397 -1.54279 18129 ft 322 kts 148°
2026-05-04 21:42 51.92524 -1.52302 17727 ft 320 kts 148°
2026-05-04 21:42 51.90667 -1.50343 17319 ft 319 kts 148°
2026-05-04 21:43 51.88809 -1.48383 16933 ft 317 kts 148°
2026-05-04 21:43 51.86961 -1.46436 16547 ft 316 kts 148°
2026-05-04 21:43 51.85121 -1.44502 16172 ft 315 kts 148°
2026-05-04 21:43 51.83284 -1.42573 15808 ft 314 kts 148°
2026-05-04 21:44 51.81479 -1.40681 15454 ft 313 kts 148°
2026-05-04 21:44 51.79654 -1.38772 15115 ft 312 kts 147°
2026-05-04 21:44 51.77817 -1.36850 14905 ft 310 kts 147°
2026-05-04 21:44 51.76037 -1.34986 14689 ft 309 kts 147°
2026-05-04 21:45 51.74212 -1.33074 14469 ft 309 kts 147°
2026-05-04 21:45 51.72435 -1.31218 14258 ft 308 kts 147°
2026-05-04 21:45 51.70639 -1.29347 14038 ft 307 kts 147°
2026-05-04 21:45 51.68845 -1.27478 13822 ft 306 kts 147°
2026-05-04 21:46 51.67050 -1.25613 13416 ft 308 kts 147°
2026-05-04 21:46 51.65257 -1.23748 13020 ft 307 kts 147°
2026-05-04 21:46 51.63464 -1.21887 12627 ft 306 kts 147°
2026-05-04 21:46 51.61679 -1.20036 12235 ft 305 kts 147°
2026-05-04 21:47 51.59903 -1.18196 11854 ft 303 kts 147°
2026-05-04 21:47 51.58286 -1.16518 11510 ft 302 kts 147°
2026-05-04 21:47 51.56524 -1.14691 11135 ft 301 kts 147°
2026-05-04 21:47 51.54770 -1.12874 10761 ft 299 kts 147°
2026-05-04 21:48 51.53025 -1.11068 10394 ft 297 kts 148°
2026-05-04 21:48 51.51288 -1.09278 10034 ft 296 kts 148°
2026-05-04 21:48 51.49561 -1.07505 9643 ft 294 kts 148°
2026-05-04 21:48 51.47845 -1.05743 9245 ft 292 kts 148°
2026-05-04 21:49 51.46143 -1.03990 8853 ft 290 kts 148°
2026-05-04 21:49 51.44456 -1.02252 8461 ft 287 kts 148°
2026-05-04 21:49 51.42782 -1.00530 8079 ft 285 kts 148°
2026-05-04 21:49 51.41121 -0.98825 7699 ft 282 kts 148°
2026-05-04 21:50 51.39474 -0.97135 7320 ft 280 kts 148°
2026-05-04 21:50 51.37841 -0.95459 6954 ft 278 kts 148°
2026-05-04 21:50 51.36215 -0.93791 6584 ft 277 kts 148°
2026-05-04 21:50 51.34603 -0.92116 6201 ft 276 kts 145°
2026-05-04 21:51 51.33217 -0.90019 5851 ft 274 kts 128°
2026-05-04 21:51 51.32050 -0.87634 5604 ft 269 kts 127°
2026-05-04 21:51 51.30908 -0.85336 5344 ft 259 kts 127°
2026-05-04 21:51 51.29812 -0.83134 5199 ft 247 kts 127°
2026-05-04 21:52 51.28769 -0.81032 5072 ft 237 kts 127°
2026-05-04 21:52 51.27751 -0.78975 4953 ft 235 kts 126°
2026-05-04 21:52 51.26744 -0.76939 4817 ft 234 kts 127°
2026-05-04 21:52 51.25735 -0.74899 4692 ft 234 kts 127°
2026-05-04 21:53 51.24727 -0.72862 4561 ft 234 kts 126°
2026-05-04 21:53 51.23718 -0.70844 4429 ft 233 kts 130°
2026-05-04 21:53 51.22484 -0.69175 4299 ft 234 kts 145°
2026-05-04 21:53 51.21068 -0.67885 4179 ft 234 kts 150°
2026-05-04 21:54 51.19626 -0.66685 4069 ft 234 kts 151°
2026-05-04 21:54 51.18186 -0.65491 4031 ft 233 kts 151°
2026-05-04 21:54 51.16747 -0.64300 4036 ft 233 kts 151°
2026-05-04 21:54 51.15306 -0.63120 4034 ft 233 kts 151°
2026-05-04 21:55 51.13880 -0.61976 4036 ft 232 kts 151°
2026-05-04 21:55 51.12435 -0.60822 4033 ft 233 kts 151°
2026-05-04 21:55 51.10987 -0.59668 4030 ft 232 kts 151°
2026-05-04 21:55 51.09577 -0.58423 4024 ft 231 kts 138°
2026-05-04 21:56 51.08723 -0.56356 4033 ft 226 kts 99°
2026-05-04 21:56 51.08943 -0.53957 4018 ft 223 kts 58°
2026-05-04 21:56 51.09959 -0.52098 4009 ft 220 kts 47°
2026-05-04 21:56 51.10609 -0.50015 3886 ft 210 kts 79°
2026-05-04 21:57 51.10827 -0.47739 3636 ft 206 kts 77°
2026-05-04 21:57 51.11122 -0.45517 3376 ft 205 kts 76°
2026-05-04 21:57 51.11431 -0.43313 3099 ft 203 kts 76°
2026-05-04 21:57 51.11732 -0.41164 2842 ft 194 kts 76°
2026-05-04 21:58 51.12020 -0.39108 2565 ft 186 kts 76°
2026-05-04 21:58 51.12292 -0.37167 2321 ft 172 kts 76°
2026-05-04 21:58 51.12535 -0.35424 2105 ft 150 kts 76°
2026-05-04 21:58 51.12747 -0.33903 1909 ft 133 kts 76°
2026-05-04 21:59 51.12941 -0.32509 1738 ft 127 kts 76°
2026-05-04 21:59 51.13129 -0.31161 1562 ft 124 kts 76°
2026-05-04 21:59 51.13315 -0.29830 1399 ft 122 kts 76°
2026-05-04 21:59 51.13498 -0.28512 1235 ft 122 kts 77°
2026-05-04 22:00 51.13682 -0.27190 1062 ft 122 kts 76°
2026-05-04 22:00 51.13866 -0.25866 892 ft 123 kts 76°
2026-05-04 22:00 51.14049 -0.24547 728 ft 121 kts 77°
2026-05-04 22:00 51.14233 -0.23225 566 ft 123 kts 77°
2026-05-04 22:01 51.14417 -0.21898 400 ft 124 kts 77°
2026-05-04 22:01 51.14600 -0.20569 246 ft 123 kts 77°
2026-05-04 22:01 51.14771 -0.19350 207 ft 96 kts 75°
2026-05-04 22:01 51.14853 -0.18758 202 ft 36 kts 78°
2026-05-04 22:02 51.14965 -0.18467 202 ft 25 kts 51°
2026-05-04 22:02 51.15059 -0.18279 208 ft 16 kts 52°
2026-05-04 22:02 51.15103 -0.18193 210 ft 3 kts 50°
2026-05-04 22:02 51.15106 -0.18187 210 ft 0 kts 50°
2026-05-04 22:03 51.15121 -0.18137 206 ft 7 kts 78°
2026-05-04 22:03 51.15135 -0.18069 212 ft 6 kts 44°
2026-05-04 22:03 51.15179 -0.18075 211 ft 8 kts 345°
2026-05-04 22:04 51.15240 -0.18095 209 ft 10 kts 349°
2026-05-04 22:04 51.15315 -0.18120 208 ft 11 kts 348°
2026-05-04 22:04 51.15394 -0.18148 207 ft 11 kts 347°
2026-05-04 22:04 51.15461 -0.18175 204 ft 9 kts 341°
2026-05-04 22:05 51.15514 -0.18200 204 ft 7 kts 348°
2026-05-04 22:05 51.15565 -0.18217 204 ft 9 kts 348°
2026-05-04 22:05 51.15629 -0.18237 213 ft 10 kts 351°
2026-05-04 22:05 51.15673 -0.18161 205 ft 11 kts 77°
2026-05-04 22:06 51.15684 -0.18078 206 ft 12 kts 72°
2026-05-04 22:06 51.15752 -0.18049 212 ft 12 kts 348°
2026-05-04 22:06 51.15836 -0.18077 209 ft 13 kts 347°
2026-05-04 22:06 51.15931 -0.18108 204 ft 15 kts 347°
2026-05-04 22:07 51.16031 -0.18143 208 ft 12 kts 343°
2026-05-04 22:07 51.16078 -0.18161 204 ft 2 kts 348°
2026-05-04 22:07 51.16101 -0.18168 210 ft 4 kts 349°
2026-05-04 22:07 51.16137 -0.18180 204 ft 6 kts 343°
2026-05-04 22:08 51.16142 -0.18211 204 ft 3 kts 264°
2026-05-04 22:08 51.16135 -0.18275 208 ft 7 kts 258°
2026-05-04 22:08 51.16129 -0.18319 208 ft 2 kts 257°
2026-05-04 22:08 51.16128 -0.18330 204 ft 0 kts 257°